GEFSMW_prec_meanprecacc_210.txt.gz
Total_Precipitation_Accumulation
1.88 2.29 2.59 3.16 3.77 4.14 4.52 4.66 4.64 4.51 4.26 3.83 3.49 3.24 3.02 2.87 2.62 2.44 2.36 2.22 2.10 2.20 2.52 2.40 2.53 2.51 2.52 2.53 2.54 2.55 2.40 2.03 2.23 2.32 1.89 1.41 1.09 1.07 0.85 0.76 0.79 0.80 0.79
1.79 2.32 2.61 2.82 3.29 3.80 4.26 4.54 4.68 4.55 4.15 3.69 3.45 3.30 3.23 2.88 2.58 2.53 2.54 2.36 2.37 2.36 2.36 2.45 2.42 2.46 2.55 2.47 2.41 2.46 2.28 1.91 2.05 2.23 2.28 1.69 1.30 1.00 0.71 0.77 0.87 0.95 1.02
2.06 2.33 2.52 2.68 2.95 3.34 3.65 3.77 3.91 3.87 3.69 3.67 3.65 3.55 3.48 3.03 2.85 2.82 2.78 2.63 2.58 2.52 2.49 2.44 2.34 2.27 2.15 2.13 2.19 2.21 2.19 2.02 1.93 2.11 2.39 1.97 1.50 1.24 0.87 0.81 0.88 1.08 1.28
1.71 1.86 2.17 2.49 2.65 2.88 3.23 3.46 3.51 3.45 3.34 3.41 3.41 3.26 3.04 2.85 2.93 3.16 3.10 2.83 2.58 2.38 2.14 2.00 2.05 2.04 1.94 1.90 1.70 1.75 1.87 1.81 1.67 1.81 1.90 1.93 1.95 1.86 1.26 0.90 0.84 1.01 1.17
1.46 1.56 1.77 2.08 2.19 2.50 2.78 3.03 3.29 3.36 3.29 3.31 3.22 3.19 3.06 3.04 3.05 2.97 2.87 2.63 2.39 2.07 1.77 1.67 1.75 1.76 1.69 1.60 1.52 1.61 1.54 1.47 1.45 1.61 1.78 1.85 1.92 1.90 1.76 1.36 1.25 1.21 1.07
1.30 1.48 1.64 1.87 1.98 2.14 2.25 2.39 2.59 2.86 3.00 3.03 3.00 2.99 2.91 2.86 2.77 2.59 2.39 2.19 2.01 1.74 1.49 1.38 1.49 1.59 1.62 1.58 1.53 1.57 1.45 1.44 1.53 1.52 1.59 1.78 1.76 1.78 1.89 1.62 1.47 1.38 1.11
1.01 1.22 1.35 1.46 1.59 1.71 1.80 1.92 2.12 2.45 2.57 2.54 2.53 2.64 2.67 2.65 2.55 2.45 2.24 2.01 1.76 1.46 1.38 1.39 1.46 1.51 1.58 1.49 1.51 1.51 1.53 1.62 1.65 1.57 1.54 1.62 1.63 1.70 1.87 1.84 1.67 1.57 1.39
0.76 0.91 1.12 1.32 1.38 1.42 1.54 1.67 1.90 2.11 2.18 2.09 2.21 2.41 2.47 2.53 2.41 2.40 2.17 1.88 1.66 1.53 1.55 1.52 1.42 1.39 1.45 1.38 1.57 1.50 1.53 1.65 1.65 1.48 1.65 1.67 1.67 1.86 2.04 2.13 2.15 1.94 1.71
0.74 0.80 0.87 1.02 1.07 1.13 1.22 1.33 1.68 1.91 1.99 1.99 2.13 2.25 2.32 2.27 2.16 2.06 1.91 1.71 1.69 1.63 1.73 1.69 1.59 1.48 1.51 1.61 1.83 1.81 1.81 1.94 1.88 1.83 1.95 1.89 1.82 1.89 1.97 2.10 2.21 2.30 2.08
0.53 0.59 0.59 0.68 0.81 0.99 1.17 1.28 1.40 1.62 1.82 1.86 1.90 1.94 2.07 2.00 1.90 1.86 1.70 1.54 1.46 1.53 1.69 1.79 1.74 1.65 1.66 1.80 1.95 1.97 2.09 2.19 2.17 2.20 2.26 2.17 2.02 2.05 2.09 2.07 2.21 2.41 2.36
0.41 0.46 0.55 0.67 0.79 0.89 1.04 1.21 1.27 1.41 1.56 1.64 1.75 1.76 1.74 1.80 1.82 1.70 1.53 1.46 1.46 1.50 1.57 1.70 1.77 1.72 1.72 1.82 1.88 1.87 2.09 2.19 2.19 2.16 2.15 2.07 2.12 2.13 2.03 2.08 2.20 2.37 2.41
0.49 0.50 0.63 0.74 0.78 0.88 0.97 1.05 1.11 1.24 1.40 1.55 1.74 1.83 1.83 1.85 1.80 1.62 1.48 1.47 1.50 1.56 1.59 1.68 1.70 1.62 1.63 1.77 1.80 1.86 2.04 2.12 2.04 1.98 1.97 1.80 1.83 1.87 1.77 1.87 1.95 2.03 2.21
0.55 0.58 0.65 0.67 0.70 0.80 0.92 0.91 0.94 1.11 1.30 1.52 1.85 2.01 2.00 1.93 1.83 1.66 1.48 1.43 1.46 1.55 1.60 1.61 1.62 1.65 1.75 1.81 1.78 1.75 1.72 1.69 1.74 1.90 1.98 1.78 1.75 1.68 1.68 1.71 1.70 1.75 1.88
0.62 0.69 0.69 0.76 0.76 0.74 0.83 0.84 0.91 1.02 1.24 1.43 1.61 1.71 1.62 1.59 1.60 1.54 1.43 1.35 1.36 1.44 1.53 1.60 1.67 1.73 1.77 1.77 1.78 1.78 1.69 1.60 1.60 1.69 1.72 1.67 1.67 1.63 1.71 1.67 1.66 1.67 1.77
0.58 0.61 0.59 0.65 0.71 0.72 0.80 0.77 0.76 0.82 0.96 1.13 1.24 1.37 1.37 1.36 1.36 1.39 1.40 1.36 1.45 1.49 1.57 1.63 1.65 1.62 1.60 1.50 1.48 1.50 1.46 1.50 1.45 1.38 1.37 1.39 1.47 1.48 1.48 1.38 1.50 1.65 1.72
0.40 0.39 0.50 0.57 0.58 0.58 0.62 0.58 0.63 0.76 0.91 1.02 1.13 1.33 1.45 1.48 1.45 1.41 1.44 1.45 1.48 1.53 1.58 1.56 1.61 1.58 1.33 1.42 1.42 1.41 1.54 1.62 1.60 1.50 1.41 1.34 1.29 1.22 1.18 1.15 1.22 1.42 1.55
0.34 0.30 0.36 0.46 0.50 0.52 0.53 0.62 0.75 0.87 0.99 1.13 1.28 1.46 1.54 1.61 1.61 1.49 1.51 1.49 1.56 1.65 1.62 1.57 1.56 1.58 1.62 1.62 1.46 1.33 1.33 1.43 1.47 1.45 1.43 1.27 1.16 1.24 1.19 1.18 1.15 1.17 1.26
0.37 0.33 0.34 0.38 0.44 0.51 0.58 0.72 0.98 1.18 1.21 1.36 1.55 1.65 1.74 1.69 1.66 1.64 1.66 1.72 1.80 1.83 1.80 1.73 1.66 1.67 1.66 1.58 1.39 1.34 1.29 1.35 1.38 1.40 1.41 1.38 1.28 1.29 1.37 1.36 1.30 1.20 1.15
0.41 0.41 0.40 0.45 0.54 0.58 0.62 0.81 1.03 1.26 1.38 1.44 1.59 1.75 1.84 1.85 1.85 1.87 1.82 1.85 1.93 1.90 1.86 1.83 1.86 1.82 1.84 1.85 1.64 1.59 1.47 1.52 1.54 1.54 1.51 1.47 1.38 1.45 1.38 1.32 1.31 1.25 1.22
0.50 0.50 0.50 0.59 0.71 0.78 0.82 0.95 1.08 1.22 1.39 1.48 1.60 1.76 1.95 1.98 2.02 2.14 2.20 2.11 2.06 1.97 2.02 2.03 2.03 2.03 2.08 2.24 2.00 1.81 1.66 1.71 1.73 1.80 1.74 1.67 1.52 1.51 1.41 1.28 1.31 1.28 1.28
0.57 0.55 0.57 0.65 0.81 0.93 1.03 1.15 1.29 1.41 1.43 1.49 1.61 1.81 1.96 2.04 2.10 2.24 2.32 2.31 2.29 2.27 2.21 2.15 2.18 2.18 2.19 2.31 2.04 1.84 1.75 1.83 1.91 1.89 1.79 1.80 1.74 1.54 1.49 1.40 1.36 1.39 1.38
0.69 0.68 0.70 0.84 1.00 1.13 1.17 1.25 1.33 1.37 1.40 1.42 1.53 1.65 1.80 1.84 1.92 2.14 2.23 2.31 2.34 2.31 2.22 2.15 2.04 2.06 2.06 2.02 1.90 1.77 1.68 1.77 1.91 1.98 1.89 1.83 1.72 1.48 1.40 1.29 1.28 1.29 1.18
0.70 0.74 0.79 0.99 1.18 1.33 1.39 1.45 1.35 1.40 1.42 1.47 1.59 1.72 1.80 1.86 1.96 2.00 2.00 2.08 2.17 2.16 2.08 2.06 1.99 1.96 1.98 1.96 1.73 1.51 1.44 1.47 1.54 1.71 1.80 1.66 1.51 1.31 1.15 1.11 1.08 0.99 0.88
0.61 0.66 0.74 0.85 0.96 1.15 1.31 1.40 1.43 1.47 1.50 1.54 1.59 1.66 1.77 1.79 1.82 1.93 2.01 2.07 2.18 2.28 2.19 2.08 1.99 1.94 1.90 1.79 1.61 1.42 1.33 1.39 1.46 1.56 1.61 1.46 1.33 1.15 1.06 0.99 0.91 0.85 0.89
0.61 0.65 0.74 0.76 0.82 0.90 1.00 1.08 1.16 1.28 1.35 1.40 1.46 1.51 1.54 1.63 1.70 1.75 1.83 1.85 1.93 1.93 1.91 1.86 1.84 1.83 1.78 1.62 1.52 1.39 1.28 1.32 1.42 1.48 1.53 1.43 1.37 1.29 1.20 1.13 1.06 1.04 1.05
0.66 0.69 0.72 0.73 0.76 0.79 0.93 1.03 1.11 1.25 1.38 1.48 1.51 1.44 1.42 1.47 1.51 1.54 1.53 1.52 1.45 1.43 1.39 1.40 1.40 1.39 1.34 1.24 1.12 1.08 1.08 1.11 1.24 1.30 1.47 1.54 1.50 1.45 1.38 1.26 1.16 1.11 1.07

GEFSMW_prec_meanprecacc_216.txt.gz
Total_Precipitation_Accumulation
1.88 2.30 2.60 3.16 3.78 4.15 4.54 4.69 4.67 4.54 4.31 3.88 3.54 3.29 3.06 2.90 2.65 2.47 2.38 2.24 2.12 2.23 2.56 2.45 2.62 2.58 2.59 2.59 2.62 2.65 2.51 2.12 2.31 2.41 1.95 1.43 1.10 1.09 0.86 0.78 0.81 0.84 0.84
1.80 2.32 2.62 2.82 3.30 3.81 4.27 4.55 4.69 4.57 4.17 3.74 3.50 3.34 3.27 2.91 2.60 2.56 2.59 2.41 2.41 2.40 2.42 2.53 2.50 2.55 2.66 2.57 2.52 2.57 2.38 2.00 2.14 2.35 2.42 1.81 1.41 1.07 0.74 0.80 0.91 1.00 1.10
2.07 2.33 2.52 2.68 2.96 3.35 3.66 3.78 3.92 3.88 3.72 3.71 3.68 3.59 3.52 3.07 2.92 2.89 2.86 2.69 2.64 2.58 2.54 2.52 2.42 2.36 2.23 2.26 2.33 2.33 2.31 2.15 2.05 2.24 2.52 2.13 1.66 1.36 0.94 0.85 0.91 1.12 1.34
1.71 1.87 2.18 2.49 2.66 2.89 3.24 3.47 3.52 3.47 3.37 3.44 3.45 3.31 3.09 2.91 3.00 3.23 3.19 2.91 2.66 2.45 2.21 2.08 2.14 2.12 2.02 2.03 1.82 1.89 2.01 1.98 1.82 1.96 2.02 2.04 2.08 2.01 1.41 1.01 0.91 1.08 1.24
1.46 1.56 1.77 2.08 2.19 2.50 2.79 3.03 3.30 3.38 3.31 3.34 3.26 3.24 3.11 3.10 3.11 3.05 2.99 2.74 2.50 2.15 1.84 1.74 1.82 1.83 1.76 1.69 1.62 1.75 1.67 1.61 1.57 1.73 1.88 1.96 2.04 2.01 1.89 1.51 1.41 1.38 1.21
1.31 1.49 1.64 1.87 1.99 2.14 2.25 2.39 2.60 2.87 3.03 3.05 3.03 3.04 2.96 2.94 2.85 2.71 2.53 2.31 2.10 1.83 1.56 1.43 1.55 1.65 1.68 1.64 1.61 1.68 1.57 1.56 1.66 1.64 1.69 1.87 1.86 1.87 2.02 1.76 1.65 1.59 1.30
1.01 1.23 1.35 1.46 1.59 1.72 1.81 1.93 2.13 2.46 2.59 2.56 2.54 2.66 2.71 2.71 2.62 2.55 2.35 2.11 1.83 1.53 1.46 1.45 1.53 1.57 1.64 1.55 1.58 1.62 1.66 1.75 1.78 1.69 1.65 1.72 1.72 1.78 1.98 1.98 1.82 1.73 1.55
0.77 0.92 1.13 1.33 1.39 1.42 1.54 1.67 1.90 2.12 2.19 2.11 2.24 2.44 2.50 2.57 2.45 2.47 2.23 1.95 1.72 1.60 1.63 1.60 1.49 1.45 1.52 1.45 1.66 1.60 1.64 1.77 1.76 1.58 1.76 1.77 1.76 1.95 2.13 2.24 2.30 2.10 1.85
0.74 0.80 0.87 1.03 1.08 1.13 1.22 1.33 1.69 1.93 2.01 2.01 2.16 2.28 2.35 2.32 2.22 2.13 1.96 1.76 1.75 1.71 1.81 1.77 1.65 1.54 1.59 1.69 1.92 1.88 1.89 2.04 1.97 1.91 2.04 1.96 1.87 1.95 2.05 2.20 2.36 2.45 2.20
0.53 0.59 0.59 0.69 0.81 0.99 1.17 1.28 1.42 1.64 1.85 1.90 1.94 1.98 2.13 2.06 1.96 1.92 1.78 1.62 1.54 1.59 1.75 1.86 1.81 1.73 1.74 1.87 2.03 2.04 2.17 2.28 2.24 2.26 2.33 2.24 2.08 2.13 2.18 2.17 2.33 2.55 2.49
0.41 0.46 0.55 0.67 0.80 0.90 1.05 1.23 1.30 1.44 1.59 1.68 1.79 1.80 1.79 1.85 1.88 1.76 1.61 1.56 1.54 1.57 1.64 1.79 1.86 1.80 1.79 1.90 1.97 1.93 2.15 2.25 2.25 2.21 2.21 2.16 2.23 2.23 2.14 2.19 2.33 2.51 2.55
0.49 0.52 0.67 0.77 0.80 0.90 0.99 1.07 1.13 1.26 1.42 1.58 1.77 1.86 1.87 1.90 1.85 1.68 1.54 1.54 1.56 1.62 1.68 1.78 1.78 1.69 1.70 1.85 1.88 1.92 2.10 2.17 2.09 2.04 2.05 1.89 1.93 1.96 1.85 1.96 2.03 2.13 2.32
0.61 0.70 0.77 0.73 0.74 0.82 0.93 0.91 0.95 1.13 1.32 1.54 1.87 2.03 2.04 1.97 1.89 1.71 1.53 1.49 1.52 1.61 1.66 1.67 1.68 1.71 1.82 1.89 1.87 1.84 1.80 1.77 1.81 1.97 2.04 1.85 1.82 1.74 1.74 1.78 1.76 1.82 1.95
0.65 0.75 0.75 0.81 0.79 0.75 0.84 0.85 0.91 1.02 1.24 1.44 1.63 1.74 1.66 1.63 1.64 1.57 1.47 1.41 1.41 1.49 1.58 1.64 1.72 1.78 1.83 1.85 1.88 1.87 1.78 1.71 1.70 1.78 1.81 1.77 1.73 1.68 1.76 1.71 1.71 1.74 1.85
0.60 0.62 0.61 0.68 0.73 0.73 0.81 0.77 0.77 0.82 0.97 1.16 1.28 1.41 1.42 1.40 1.38 1.42 1.45 1.42 1.50 1.53 1.60 1.67 1.70 1.69 1.69 1.58 1.57 1.60 1.58 1.64 1.57 1.49 1.49 1.49 1.54 1.54 1.53 1.43 1.56 1.71 1.79
0.41 0.40 0.51 0.58 0.60 0.59 0.62 0.58 0.64 0.77 0.92 1.03 1.14 1.35 1.47 1.49 1.47 1.49 1.55 1.54 1.54 1.57 1.61 1.60 1.67 1.66 1.43 1.51 1.50 1.49 1.60 1.69 1.67 1.57 1.49 1.41 1.36 1.28 1.23 1.21 1.28 1.48 1.62
0.35 0.30 0.37 0.46 0.51 0.53 0.53 0.62 0.75 0.88 1.00 1.14 1.28 1.46 1.55 1.63 1.64 1.57 1.64 1.57 1.60 1.68 1.65 1.60 1.59 1.63 1.68 1.68 1.51 1.37 1.37 1.48 1.51 1.50 1.48 1.33 1.22 1.31 1.26 1.25 1.22 1.24 1.34
0.37 0.33 0.35 0.38 0.45 0.51 0.59 0.72 0.98 1.19 1.22 1.37 1.56 1.66 1.75 1.71 1.67 1.66 1.68 1.74 1.83 1.85 1.82 1.76 1.69 1.70 1.69 1.61 1.41 1.37 1.33 1.39 1.42 1.45 1.46 1.45 1.37 1.38 1.45 1.44 1.38 1.27 1.22
0.41 0.41 0.40 0.46 0.54 0.58 0.62 0.82 1.04 1.27 1.39 1.46 1.60 1.76 1.86 1.86 1.87 1.89 1.84 1.87 1.95 1.92 1.87 1.85 1.88 1.84 1.86 1.87 1.67 1.62 1.51 1.55 1.58 1.59 1.58 1.55 1.48 1.56 1.49 1.41 1.38 1.31 1.26
0.50 0.50 0.50 0.59 0.71 0.79 0.83 0.96 1.09 1.23 1.41 1.49 1.61 1.77 1.97 2.01 2.05 2.18 2.22 2.13 2.08 1.98 2.03 2.05 2.05 2.05 2.10 2.27 2.04 1.83 1.68 1.73 1.74 1.82 1.78 1.75 1.61 1.60 1.50 1.37 1.38 1.34 1.33
0.57 0.55 0.58 0.66 0.82 0.94 1.04 1.16 1.30 1.42 1.44 1.50 1.62 1.82 1.98 2.07 2.13 2.27 2.36 2.34 2.31 2.29 2.23 2.17 2.20 2.19 2.20 2.33 2.07 1.87 1.77 1.85 1.93 1.90 1.82 1.85 1.81 1.62 1.59 1.49 1.43 1.45 1.43
0.69 0.69 0.71 0.86 1.01 1.15 1.19 1.27 1.34 1.38 1.40 1.42 1.53 1.66 1.82 1.87 1.95 2.18 2.28 2.36 2.38 2.34 2.25 2.17 2.06 2.07 2.07 2.02 1.91 1.78 1.70 1.78 1.92 1.99 1.90 1.85 1.78 1.54 1.45 1.33 1.31 1.31 1.20
0.72 0.75 0.80 1.00 1.19 1.35 1.41 1.46 1.36 1.41 1.43 1.48 1.60 1.73 1.81 1.88 1.99 2.08 2.10 2.16 2.22 2.20 2.11 2.08 2.00 1.97 1.99 1.97 1.74 1.51 1.45 1.47 1.54 1.72 1.81 1.68 1.54 1.33 1.17 1.12 1.09 0.99 0.89
0.63 0.67 0.76 0.86 0.97 1.17 1.33 1.42 1.44 1.49 1.51 1.55 1.60 1.67 1.78 1.81 1.84 1.95 2.04 2.14 2.23 2.32 2.22 2.10 2.01 1.96 1.91 1.80 1.61 1.42 1.33 1.39 1.47 1.56 1.62 1.48 1.35 1.17 1.07 1.00 0.91 0.85 0.89
0.64 0.68 0.77 0.79 0.85 0.92 1.02 1.10 1.18 1.30 1.36 1.42 1.47 1.52 1.55 1.64 1.71 1.76 1.84 1.87 1.95 1.95 1.94 1.88 1.86 1.85 1.79 1.63 1.53 1.39 1.28 1.33 1.43 1.49 1.54 1.43 1.37 1.30 1.21 1.13 1.07 1.05 1.05
0.70 0.73 0.76 0.76 0.79 0.82 0.96 1.06 1.14 1.27 1.40 1.49 1.52 1.45 1.42 1.47 1.52 1.55 1.54 1.52 1.45 1.44 1.40 1.41 1.41 1.41 1.35 1.25 1.13 1.10 1.09 1.12 1.25 1.31 1.47 1.54 1.50 1.46 1.38 1.27 1.16 1.11 1.07

GEFSMW_prec_meanprecacc_222.txt.gz
Total_Precipitation_Accumulation
1.89 2.31 2.61 3.17 3.79 4.16 4.55 4.70 4.68 4.55 4.33 3.91 3.56 3.30 3.07 2.91 2.66 2.49 2.40 2.27 2.14 2.24 2.58 2.48 2.65 2.60 2.61 2.62 2.64 2.68 2.54 2.17 2.36 2.45 1.99 1.47 1.16 1.17 0.97 0.88 0.92 0.98 1.01
1.80 2.33 2.62 2.83 3.30 3.82 4.28 4.56 4.70 4.58 4.18 3.75 3.51 3.35 3.29 2.92 2.62 2.58 2.60 2.43 2.44 2.44 2.45 2.57 2.54 2.57 2.68 2.59 2.54 2.60 2.43 2.05 2.19 2.41 2.47 1.86 1.49 1.16 0.83 0.92 1.03 1.12 1.24
2.07 2.33 2.52 2.68 2.96 3.35 3.66 3.78 3.93 3.89 3.72 3.72 3.70 3.61 3.54 3.08 2.93 2.91 2.88 2.72 2.68 2.63 2.60 2.57 2.46 2.40 2.27 2.30 2.36 2.36 2.35 2.22 2.11 2.31 2.58 2.18 1.71 1.41 1.03 1.00 1.07 1.24 1.44
1.71 1.87 2.18 2.49 2.66 2.89 3.24 3.47 3.53 3.48 3.38 3.46 3.47 3.33 3.11 2.92 3.01 3.26 3.23 2.96 2.71 2.50 2.27 2.16 2.20 2.18 2.06 2.06 1.85 1.93 2.07 2.05 1.88 2.03 2.09 2.11 2.14 2.05 1.48 1.13 1.03 1.19 1.34
1.46 1.57 1.77 2.08 2.19 2.50 2.79 3.04 3.31 3.39 3.32 3.35 3.27 3.25 3.12 3.11 3.14 3.08 3.03 2.78 2.54 2.20 1.89 1.81 1.88 1.87 1.79 1.72 1.67 1.80 1.72 1.66 1.64 1.79 1.97 2.04 2.11 2.08 1.95 1.56 1.47 1.48 1.39
1.31 1.49 1.65 1.87 1.99 2.15 2.26 2.40 2.61 2.88 3.03 3.06 3.03 3.05 2.98 2.96 2.89 2.75 2.58 2.36 2.16 1.88 1.62 1.49 1.60 1.70 1.73 1.68 1.65 1.73 1.63 1.62 1.72 1.70 1.76 1.96 1.97 1.97 2.10 1.81 1.68 1.64 1.43
1.01 1.23 1.36 1.47 1.61 1.73 1.83 1.95 2.15 2.47 2.61 2.57 2.56 2.68 2.73 2.75 2.65 2.59 2.41 2.17 1.89 1.59 1.53 1.53 1.58 1.63 1.71 1.61 1.63 1.68 1.72 1.82 1.86 1.77 1.72 1.81 1.84 1.90 2.05 2.04 1.86 1.78 1.63
0.77 0.93 1.14 1.35 1.41 1.45 1.57 1.70 1.93 2.15 2.22 2.14 2.26 2.47 2.55 2.64 2.52 2.53 2.28 2.02 1.81 1.69 1.72 1.67 1.55 1.52 1.61 1.53 1.72 1.65 1.68 1.84 1.83 1.63 1.82 1.86 1.87 2.06 2.23 2.31 2.37 2.17 1.94
0.75 0.82 0.90 1.07 1.12 1.18 1.30 1.44 1.78 2.05 2.12 2.11 2.23 2.35 2.43 2.42 2.33 2.21 2.05 1.86 1.87 1.81 1.91 1.84 1.71 1.61 1.66 1.78 2.00 1.94 1.93 2.08 2.02 1.96 2.10 2.05 1.95 2.04 2.13 2.28 2.43 2.53 2.29
0.54 0.61 0.66 0.76 0.88 1.10 1.36 1.50 1.62 1.89 2.01 2.02 2.04 2.07 2.24 2.20 2.09 2.02 1.87 1.73 1.64 1.68 1.82 1.94 1.88 1.79 1.80 1.95 2.09 2.09 2.22 2.34 2.28 2.31 2.38 2.30 2.15 2.18 2.23 2.24 2.40 2.62 2.56
0.41 0.49 0.62 0.76 0.92 1.07 1.24 1.34 1.39 1.53 1.67 1.75 1.87 1.87 1.88 1.95 1.98 1.86 1.69 1.63 1.60 1.63 1.70 1.86 1.93 1.87 1.86 1.98 2.03 1.98 2.22 2.32 2.30 2.27 2.27 2.22 2.27 2.27 2.17 2.23 2.37 2.56 2.61
0.50 0.54 0.72 0.88 1.00 1.13 1.15 1.16 1.20 1.32 1.47 1.63 1.82 1.92 1.93 1.96 1.92 1.74 1.60 1.59 1.61 1.68 1.74 1.84 1.86 1.76 1.77 1.91 1.94 1.99 2.19 2.27 2.16 2.11 2.10 1.93 1.97 2.00 1.89 1.99 2.07 2.17 2.36
0.62 0.72 0.81 0.83 0.86 0.93 1.02 0.99 1.01 1.17 1.35 1.57 1.91 2.07 2.07 2.00 1.92 1.74 1.55 1.51 1.55 1.65 1.71 1.71 1.72 1.76 1.87 1.95 1.94 1.93 1.91 1.89 1.94 2.11 2.16 1.94 1.93 1.83 1.81 1.83 1.80 1.87 2.00
0.69 0.80 0.80 0.86 0.85 0.81 0.89 0.88 0.93 1.04 1.26 1.45 1.65 1.76 1.68 1.64 1.65 1.58 1.49 1.44 1.46 1.54 1.61 1.67 1.75 1.81 1.87 1.90 1.94 1.96 1.89 1.85 1.86 1.96 1.99 1.92 1.87 1.79 1.87 1.81 1.78 1.80 1.91
0.62 0.69 0.69 0.75 0.77 0.77 0.84 0.80 0.78 0.84 0.98 1.16 1.28 1.42 1.42 1.40 1.39 1.45 1.49 1.51 1.59 1.59 1.64 1.70 1.73 1.72 1.72 1.63 1.63 1.68 1.68 1.78 1.75 1.66 1.66 1.64 1.70 1.69 1.68 1.54 1.65 1.79 1.86
0.44 0.42 0.58 0.67 0.63 0.62 0.64 0.60 0.65 0.79 0.94 1.04 1.15 1.35 1.48 1.51 1.49 1.52 1.60 1.64 1.62 1.62 1.64 1.63 1.70 1.69 1.46 1.58 1.56 1.53 1.65 1.74 1.73 1.64 1.55 1.47 1.45 1.40 1.37 1.33 1.38 1.57 1.72
0.38 0.32 0.40 0.55 0.54 0.54 0.55 0.64 0.78 0.90 1.02 1.16 1.30 1.49 1.58 1.66 1.67 1.61 1.70 1.65 1.65 1.70 1.68 1.63 1.62 1.65 1.70 1.70 1.52 1.39 1.40 1.51 1.55 1.52 1.50 1.34 1.25 1.36 1.32 1.33 1.30 1.31 1.43
0.39 0.34 0.36 0.40 0.47 0.53 0.60 0.74 1.00 1.20 1.24 1.38 1.57 1.69 1.78 1.74 1.71 1.70 1.73 1.79 1.87 1.89 1.86 1.80 1.71 1.72 1.71 1.63 1.43 1.40 1.36 1.41 1.44 1.46 1.48 1.46 1.39 1.40 1.48 1.48 1.42 1.31 1.27
0.43 0.42 0.41 0.47 0.55 0.59 0.63 0.83 1.05 1.28 1.41 1.47 1.61 1.78 1.87 1.89 1.91 1.93 1.87 1.92 2.00 1.96 1.91 1.88 1.91 1.86 1.88 1.89 1.69 1.65 1.54 1.56 1.59 1.60 1.59 1.57 1.50 1.58 1.51 1.45 1.43 1.38 1.36
0.53 0.52 0.52 0.60 0.73 0.81 0.85 0.98 1.11 1.24 1.42 1.51 1.62 1.79 2.00 2.05 2.09 2.20 2.25 2.18 2.12 2.02 2.07 2.09 2.07 2.07 2.11 2.29 2.06 1.88 1.73 1.76 1.77 1.84 1.80 1.77 1.63 1.62 1.52 1.41 1.44 1.44 1.44
0.63 0.60 0.61 0.69 0.85 0.97 1.06 1.18 1.32 1.44 1.45 1.52 1.65 1.84 2.01 2.11 2.16 2.30 2.39 2.37 2.34 2.32 2.27 2.20 2.22 2.22 2.24 2.38 2.12 1.92 1.81 1.88 1.97 1.94 1.85 1.87 1.83 1.64 1.61 1.53 1.48 1.47 1.44
0.72 0.72 0.75 0.89 1.07 1.19 1.21 1.28 1.35 1.40 1.42 1.44 1.54 1.67 1.84 1.89 1.97 2.20 2.31 2.38 2.41 2.37 2.28 2.21 2.10 2.13 2.13 2.07 1.95 1.83 1.75 1.83 1.95 2.01 1.92 1.87 1.79 1.55 1.47 1.35 1.33 1.32 1.21
0.74 0.78 0.83 1.04 1.27 1.40 1.43 1.48 1.37 1.42 1.45 1.49 1.62 1.74 1.83 1.89 2.01 2.10 2.12 2.19 2.26 2.22 2.13 2.12 2.05 2.02 2.04 2.01 1.77 1.54 1.48 1.50 1.56 1.73 1.82 1.69 1.55 1.34 1.17 1.13 1.09 0.99 0.89
0.66 0.70 0.79 0.88 0.99 1.18 1.34 1.43 1.46 1.51 1.53 1.57 1.62 1.68 1.80 1.83 1.86 1.97 2.06 2.16 2.26 2.34 2.25 2.15 2.05 2.02 1.96 1.83 1.65 1.46 1.37 1.42 1.49 1.58 1.64 1.49 1.36 1.18 1.07 1.00 0.91 0.86 0.90
0.67 0.71 0.80 0.81 0.86 0.94 1.04 1.12 1.21 1.33 1.39 1.45 1.50 1.55 1.57 1.65 1.73 1.77 1.85 1.87 1.96 1.97 1.96 1.91 1.88 1.87 1.81 1.64 1.55 1.42 1.31 1.37 1.47 1.52 1.56 1.45 1.39 1.31 1.22 1.14 1.07 1.05 1.06
0.72 0.76 0.78 0.78 0.81 0.85 0.99 1.10 1.18 1.32 1.44 1.52 1.54 1.47 1.43 1.48 1.53 1.56 1.55 1.54 1.47 1.46 1.42 1.42 1.43 1.42 1.36 1.26 1.15 1.11 1.10 1.15 1.29 1.34 1.49 1.55 1.51 1.46 1.39 1.27 1.16 1.11 1.08

GEFSMW_prec_meanprecacc_228.txt.gz
Total_Precipitation_Accumulation
1.90 2.33 2.63 3.19 3.80 4.17 4.56 4.70 4.69 4.56 4.34 3.92 3.57 3.31 3.09 2.93 2.69 2.51 2.43 2.29 2.18 2.29 2.64 2.55 2.72 2.66 2.65 2.64 2.68 2.73 2.59 2.22 2.42 2.51 2.03 1.51 1.18 1.20 1.01 0.92 0.98 1.05 1.09
1.81 2.33 2.63 2.84 3.32 3.83 4.28 4.57 4.71 4.59 4.19 3.76 3.52 3.37 3.31 2.94 2.64 2.61 2.64 2.46 2.47 2.49 2.50 2.63 2.61 2.64 2.73 2.64 2.59 2.65 2.48 2.10 2.25 2.47 2.52 1.90 1.52 1.19 0.87 0.96 1.07 1.18 1.29
2.07 2.33 2.53 2.69 2.97 3.36 3.67 3.79 3.94 3.90 3.73 3.73 3.71 3.62 3.56 3.10 2.96 2.94 2.91 2.74 2.72 2.70 2.68 2.65 2.54 2.49 2.34 2.36 2.41 2.41 2.41 2.26 2.16 2.37 2.63 2.21 1.74 1.45 1.06 1.02 1.10 1.27 1.47
1.71 1.87 2.18 2.50 2.67 2.91 3.25 3.48 3.54 3.49 3.39 3.47 3.48 3.34 3.12 2.94 3.04 3.30 3.26 2.99 2.75 2.56 2.36 2.25 2.30 2.27 2.13 2.12 1.90 1.99 2.11 2.08 1.92 2.08 2.14 2.16 2.17 2.08 1.51 1.16 1.05 1.21 1.37
1.46 1.57 1.77 2.09 2.20 2.51 2.80 3.05 3.31 3.40 3.33 3.36 3.28 3.27 3.14 3.13 3.17 3.12 3.07 2.82 2.58 2.26 1.96 1.90 1.97 1.96 1.87 1.80 1.74 1.86 1.77 1.70 1.68 1.85 2.02 2.09 2.16 2.11 1.98 1.60 1.51 1.51 1.41
1.31 1.49 1.65 1.88 2.00 2.15 2.27 2.41 2.63 2.90 3.05 3.09 3.05 3.07 3.00 2.99 2.91 2.79 2.62 2.39 2.20 1.93 1.68 1.55 1.66 1.76 1.78 1.75 1.73 1.80 1.70 1.67 1.79 1.76 1.82 2.00 2.03 2.04 2.16 1.85 1.71 1.67 1.46
1.01 1.23 1.37 1.47 1.62 1.75 1.84 1.96 2.16 2.49 2.63 2.62 2.59 2.71 2.76 2.78 2.68 2.62 2.43 2.20 1.93 1.64 1.59 1.58 1.63 1.68 1.76 1.66 1.69 1.74 1.78 1.89 1.92 1.83 1.77 1.86 1.90 1.99 2.14 2.11 1.94 1.84 1.67
0.77 0.93 1.14 1.35 1.42 1.46 1.58 1.72 1.94 2.17 2.26 2.21 2.32 2.52 2.59 2.67 2.55 2.56 2.31 2.05 1.84 1.74 1.77 1.74 1.61 1.57 1.66 1.58 1.78 1.70 1.72 1.89 1.90 1.69 1.87 1.90 1.93 2.13 2.29 2.39 2.45 2.24 1.98
0.75 0.82 0.90 1.07 1.13 1.19 1.31 1.46 1.81 2.08 2.17 2.20 2.33 2.41 2.48 2.46 2.36 2.27 2.10 1.90 1.91 1.86 1.96 1.90 1.76 1.66 1.72 1.84 2.06 1.98 1.96 2.13 2.07 2.00 2.14 2.09 2.00 2.10 2.18 2.35 2.51 2.59 2.34
0.54 0.61 0.66 0.76 0.89 1.10 1.36 1.52 1.65 1.94 2.06 2.06 2.13 2.14 2.29 2.24 2.13 2.07 1.91 1.77 1.68 1.73 1.88 1.99 1.92 1.84 1.86 2.00 2.14 2.13 2.27 2.39 2.33 2.36 2.44 2.35 2.20 2.23 2.28 2.29 2.46 2.69 2.63
0.42 0.49 0.62 0.76 0.93 1.08 1.24 1.34 1.40 1.55 1.69 1.79 1.96 1.93 1.91 1.99 2.03 1.90 1.73 1.67 1.64 1.68 1.75 1.92 1.98 1.92 1.93 2.04 2.09 2.05 2.29 2.39 2.36 2.32 2.32 2.28 2.34 2.33 2.22 2.28 2.41 2.61 2.65
0.50 0.55 0.72 0.89 1.01 1.14 1.15 1.17 1.23 1.36 1.50 1.66 1.86 1.95 1.96 2.00 1.97 1.79 1.65 1.63 1.64 1.70 1.77 1.89 1.91 1.82 1.82 1.97 2.00 2.05 2.25 2.34 2.23 2.18 2.19 2.03 2.06 2.09 1.95 2.05 2.12 2.22 2.41
0.63 0.73 0.81 0.84 0.87 0.94 1.02 1.00 1.02 1.19 1.36 1.58 1.91 2.08 2.08 2.02 1.94 1.76 1.56 1.52 1.57 1.68 1.73 1.75 1.77 1.80 1.90 1.98 1.98 1.96 1.94 1.93 1.98 2.17 2.25 2.08 2.08 1.96 1.91 1.91 1.86 1.92 2.06
0.69 0.80 0.81 0.87 0.86 0.82 0.90 0.89 0.94 1.04 1.26 1.46 1.65 1.77 1.69 1.65 1.66 1.59 1.50 1.45 1.48 1.56 1.64 1.71 1.78 1.84 1.89 1.92 1.97 1.99 1.92 1.88 1.91 2.03 2.08 2.05 1.99 1.90 1.96 1.88 1.84 1.86 1.97
0.63 0.69 0.70 0.76 0.79 0.79 0.86 0.81 0.79 0.84 0.98 1.16 1.28 1.42 1.43 1.41 1.40 1.46 1.51 1.53 1.62 1.62 1.68 1.73 1.75 1.75 1.74 1.65 1.66 1.71 1.71 1.82 1.79 1.71 1.73 1.73 1.76 1.75 1.75 1.61 1.71 1.87 1.93
0.45 0.43 0.59 0.68 0.64 0.63 0.66 0.61 0.66 0.79 0.94 1.04 1.15 1.35 1.48 1.51 1.51 1.55 1.63 1.68 1.68 1.68 1.71 1.67 1.72 1.72 1.48 1.60 1.59 1.56 1.67 1.77 1.76 1.66 1.57 1.49 1.46 1.42 1.40 1.36 1.43 1.64 1.78
0.39 0.34 0.41 0.55 0.55 0.56 0.56 0.66 0.79 0.91 1.02 1.16 1.30 1.49 1.59 1.68 1.69 1.65 1.74 1.71 1.71 1.75 1.72 1.66 1.64 1.68 1.72 1.72 1.54 1.41 1.41 1.53 1.56 1.53 1.52 1.36 1.26 1.39 1.34 1.36 1.34 1.36 1.48
0.39 0.35 0.36 0.41 0.48 0.54 0.61 0.75 1.01 1.22 1.25 1.39 1.58 1.69 1.80 1.77 1.75 1.74 1.75 1.82 1.89 1.91 1.88 1.82 1.73 1.74 1.73 1.65 1.45 1.42 1.39 1.43 1.46 1.48 1.50 1.48 1.41 1.42 1.50 1.50 1.44 1.34 1.31
0.43 0.42 0.41 0.48 0.57 0.61 0.65 0.86 1.08 1.30 1.43 1.49 1.62 1.79 1.89 1.93 1.96 1.98 1.92 1.96 2.04 1.99 1.93 1.89 1.92 1.88 1.90 1.92 1.72 1.68 1.56 1.58 1.61 1.63 1.62 1.60 1.52 1.60 1.52 1.46 1.46 1.41 1.39
0.54 0.53 0.54 0.63 0.77 0.86 0.90 1.03 1.15 1.27 1.44 1.53 1.65 1.82 2.03 2.09 2.14 2.27 2.33 2.25 2.20 2.08 2.10 2.10 2.09 2.09 2.13 2.33 2.10 1.92 1.76 1.79 1.80 1.87 1.84 1.83 1.67 1.64 1.54 1.42 1.45 1.46 1.47
0.64 0.62 0.64 0.75 0.94 1.09 1.15 1.24 1.36 1.47 1.48 1.56 1.69 1.88 2.04 2.13 2.19 2.34 2.43 2.41 2.38 2.36 2.29 2.22 2.24 2.24 2.27 2.41 2.16 1.96 1.85 1.91 2.01 2.00 1.91 1.92 1.86 1.66 1.63 1.55 1.50 1.49 1.46
0.74 0.74 0.79 0.93 1.15 1.32 1.28 1.32 1.38 1.42 1.45 1.47 1.58 1.70 1.86 1.91 2.00 2.23 2.33 2.40 2.44 2.40 2.30 2.24 2.11 2.15 2.15 2.09 1.97 1.87 1.81 1.88 2.00 2.07 1.99 1.94 1.85 1.60 1.50 1.38 1.35 1.34 1.23
0.78 0.81 0.87 1.07 1.32 1.46 1.47 1.52 1.40 1.45 1.48 1.52 1.63 1.76 1.84 1.91 2.03 2.12 2.13 2.20 2.27 2.24 2.15 2.14 2.06 2.03 2.05 2.02 1.79 1.57 1.54 1.58 1.62 1.78 1.87 1.75 1.61 1.40 1.21 1.17 1.12 1.02 0.91
0.73 0.77 0.86 0.94 1.03 1.22 1.39 1.47 1.50 1.55 1.56 1.59 1.63 1.69 1.81 1.84 1.87 1.98 2.07 2.16 2.27 2.35 2.26 2.17 2.06 2.03 1.97 1.83 1.65 1.48 1.41 1.48 1.59 1.67 1.70 1.54 1.41 1.22 1.11 1.03 0.94 0.88 0.91
0.73 0.76 0.85 0.86 0.90 0.98 1.09 1.17 1.26 1.37 1.42 1.47 1.52 1.56 1.58 1.67 1.74 1.79 1.86 1.88 1.97 1.98 1.98 1.93 1.90 1.88 1.82 1.65 1.56 1.43 1.32 1.39 1.51 1.57 1.60 1.48 1.42 1.33 1.23 1.15 1.08 1.06 1.07
0.77 0.81 0.83 0.82 0.84 0.88 1.03 1.14 1.22 1.35 1.46 1.54 1.56 1.48 1.45 1.50 1.54 1.56 1.56 1.55 1.49 1.49 1.45 1.45 1.45 1.44 1.37 1.27 1.16 1.12 1.11 1.16 1.29 1.35 1.49 1.56 1.52 1.47 1.39 1.27 1.17 1.12 1.08

GEFSMW_prec_meanprecacc_234.txt.gz
Total_Precipitation_Accumulation
1.91 2.33 2.63 3.19 3.80 4.17 4.56 4.71 4.70 4.58 4.36 3.95 3.61 3.36 3.14 2.97 2.72 2.55 2.47 2.35 2.24 2.36 2.72 2.60 2.78 2.74 2.73 2.74 2.77 2.82 2.69 2.31 2.49 2.57 2.09 1.56 1.21 1.23 1.03 0.94 1.00 1.07 1.10
1.81 2.33 2.63 2.85 3.32 3.83 4.29 4.57 4.72 4.60 4.20 3.78 3.55 3.40 3.35 2.98 2.68 2.65 2.69 2.52 2.54 2.56 2.58 2.71 2.69 2.73 2.83 2.75 2.70 2.74 2.56 2.17 2.33 2.56 2.61 1.98 1.59 1.24 0.89 0.98 1.09 1.19 1.30
2.07 2.33 2.53 2.69 2.97 3.36 3.67 3.79 3.94 3.90 3.73 3.74 3.74 3.65 3.60 3.14 3.01 3.00 2.97 2.79 2.77 2.76 2.74 2.71 2.61 2.58 2.44 2.45 2.50 2.50 2.50 2.35 2.23 2.45 2.73 2.30 1.82 1.51 1.10 1.05 1.12 1.29 1.50
1.71 1.87 2.18 2.50 2.68 2.91 3.26 3.49 3.54 3.49 3.39 3.48 3.50 3.38 3.16 2.98 3.08 3.34 3.29 3.02 2.78 2.60 2.39 2.29 2.35 2.35 2.21 2.20 1.97 2.06 2.20 2.19 2.02 2.19 2.24 2.25 2.25 2.16 1.57 1.19 1.09 1.24 1.40
1.46 1.57 1.77 2.09 2.20 2.51 2.80 3.05 3.32 3.40 3.34 3.38 3.30 3.30 3.18 3.16 3.19 3.13 3.09 2.85 2.62 2.30 1.99 1.95 2.03 2.03 1.95 1.88 1.82 1.95 1.86 1.79 1.78 1.97 2.13 2.19 2.24 2.17 2.03 1.65 1.56 1.55 1.45
1.31 1.49 1.65 1.88 2.00 2.15 2.27 2.41 2.63 2.90 3.07 3.11 3.08 3.11 3.04 3.01 2.93 2.81 2.65 2.43 2.24 1.97 1.73 1.60 1.72 1.82 1.86 1.83 1.80 1.88 1.77 1.75 1.87 1.84 1.89 2.09 2.11 2.11 2.24 1.93 1.77 1.73 1.51
1.01 1.23 1.37 1.47 1.62 1.75 1.84 1.96 2.16 2.49 2.66 2.65 2.63 2.75 2.79 2.79 2.70 2.65 2.47 2.23 1.98 1.70 1.64 1.63 1.69 1.74 1.81 1.71 1.75 1.80 1.83 1.95 1.99 1.89 1.83 1.93 1.98 2.07 2.23 2.20 2.01 1.91 1.74
0.77 0.93 1.14 1.35 1.42 1.46 1.58 1.72 1.94 2.17 2.27 2.22 2.35 2.54 2.61 2.69 2.57 2.58 2.33 2.07 1.87 1.77 1.81 1.78 1.66 1.61 1.70 1.62 1.83 1.75 1.78 1.95 1.95 1.74 1.94 1.98 2.01 2.21 2.35 2.46 2.53 2.31 2.06
0.75 0.82 0.90 1.07 1.13 1.19 1.31 1.46 1.81 2.09 2.19 2.22 2.35 2.44 2.50 2.48 2.38 2.28 2.11 1.92 1.92 1.87 1.98 1.93 1.80 1.70 1.76 1.88 2.12 2.03 2.01 2.18 2.11 2.04 2.19 2.14 2.07 2.17 2.24 2.42 2.59 2.67 2.41
0.54 0.61 0.66 0.77 0.89 1.10 1.36 1.52 1.65 1.94 2.07 2.08 2.15 2.17 2.32 2.27 2.15 2.08 1.93 1.78 1.69 1.74 1.90 2.01 1.95 1.87 1.90 2.05 2.20 2.18 2.32 2.44 2.38 2.40 2.48 2.41 2.26 2.29 2.34 2.36 2.55 2.79 2.72
0.42 0.49 0.62 0.76 0.93 1.08 1.24 1.34 1.40 1.56 1.70 1.80 1.97 1.95 1.93 2.02 2.05 1.91 1.73 1.67 1.65 1.69 1.77 1.94 2.01 1.99 2.02 2.11 2.14 2.10 2.36 2.45 2.43 2.39 2.38 2.34 2.40 2.39 2.29 2.36 2.50 2.70 2.75
0.50 0.55 0.72 0.89 1.01 1.14 1.16 1.17 1.23 1.37 1.52 1.70 1.89 1.96 1.97 2.01 1.97 1.80 1.65 1.63 1.65 1.73 1.80 1.92 1.93 1.86 1.87 2.04 2.06 2.11 2.32 2.41 2.30 2.25 2.24 2.08 2.12 2.15 2.02 2.12 2.20 2.30 2.50
0.63 0.73 0.81 0.84 0.87 0.94 1.03 1.01 1.03 1.19 1.37 1.59 1.93 2.09 2.09 2.02 1.94 1.76 1.56 1.52 1.58 1.69 1.75 1.76 1.77 1.82 1.93 2.02 2.03 2.02 2.01 2.00 2.05 2.23 2.31 2.14 2.13 2.02 1.96 1.96 1.91 1.98 2.10
0.69 0.80 0.81 0.88 0.87 0.83 0.91 0.90 0.95 1.05 1.27 1.46 1.66 1.78 1.70 1.66 1.67 1.59 1.50 1.46 1.49 1.56 1.64 1.71 1.78 1.85 1.90 1.93 1.98 2.00 1.94 1.91 1.95 2.07 2.12 2.09 2.04 1.94 2.00 1.91 1.87 1.90 2.01
0.63 0.70 0.70 0.76 0.79 0.80 0.87 0.81 0.80 0.85 0.99 1.17 1.29 1.43 1.44 1.42 1.41 1.46 1.52 1.54 1.62 1.62 1.68 1.73 1.75 1.75 1.75 1.65 1.66 1.71 1.72 1.84 1.82 1.73 1.75 1.75 1.78 1.77 1.76 1.63 1.74 1.90 1.98
0.45 0.43 0.60 0.69 0.65 0.64 0.66 0.61 0.67 0.80 0.94 1.05 1.16 1.36 1.49 1.52 1.51 1.55 1.63 1.68 1.68 1.69 1.71 1.68 1.73 1.72 1.48 1.60 1.59 1.56 1.68 1.78 1.77 1.67 1.58 1.50 1.48 1.43 1.41 1.37 1.44 1.66 1.82
0.40 0.34 0.41 0.56 0.55 0.56 0.57 0.66 0.79 0.92 1.03 1.17 1.31 1.50 1.60 1.68 1.70 1.65 1.75 1.72 1.72 1.75 1.72 1.66 1.65 1.68 1.73 1.73 1.55 1.42 1.42 1.54 1.57 1.54 1.53 1.37 1.27 1.40 1.35 1.37 1.35 1.37 1.51
0.39 0.35 0.36 0.41 0.48 0.55 0.62 0.76 1.02 1.22 1.26 1.40 1.59 1.70 1.81 1.78 1.76 1.75 1.77 1.84 1.91 1.92 1.89 1.82 1.74 1.75 1.73 1.65 1.46 1.44 1.39 1.44 1.46 1.49 1.50 1.49 1.42 1.43 1.51 1.51 1.45 1.35 1.32
0.43 0.42 0.41 0.48 0.57 0.62 0.66 0.87 1.09 1.31 1.44 1.50 1.63 1.80 1.90 1.95 1.98 2.00 1.95 1.99 2.06 2.01 1.94 1.90 1.93 1.88 1.91 1.92 1.72 1.69 1.57 1.59 1.61 1.63 1.63 1.61 1.53 1.61 1.54 1.48 1.47 1.43 1.41
0.54 0.53 0.55 0.63 0.77 0.87 0.91 1.05 1.16 1.29 1.45 1.53 1.65 1.83 2.04 2.11 2.15 2.28 2.34 2.27 2.22 2.10 2.12 2.11 2.09 2.10 2.14 2.33 2.11 1.93 1.77 1.80 1.81 1.88 1.86 1.86 1.69 1.67 1.57 1.44 1.47 1.48 1.50
0.65 0.63 0.65 0.77 0.96 1.10 1.16 1.25 1.38 1.49 1.50 1.57 1.70 1.89 2.06 2.14 2.21 2.35 2.44 2.42 2.39 2.37 2.31 2.23 2.25 2.25 2.27 2.41 2.16 1.97 1.85 1.92 2.02 2.01 1.93 1.98 1.93 1.71 1.66 1.59 1.53 1.52 1.50
0.75 0.75 0.80 0.94 1.16 1.33 1.29 1.33 1.39 1.44 1.47 1.48 1.59 1.71 1.87 1.92 2.01 2.24 2.34 2.41 2.44 2.40 2.31 2.24 2.12 2.15 2.15 2.09 1.98 1.87 1.82 1.90 2.02 2.09 2.01 1.97 1.89 1.63 1.52 1.40 1.38 1.38 1.26
0.79 0.82 0.88 1.09 1.33 1.47 1.48 1.53 1.42 1.47 1.49 1.52 1.64 1.76 1.85 1.92 2.03 2.13 2.14 2.20 2.28 2.25 2.16 2.14 2.07 2.04 2.06 2.03 1.79 1.58 1.55 1.58 1.63 1.79 1.89 1.78 1.65 1.43 1.23 1.19 1.15 1.05 0.94
0.74 0.78 0.87 0.96 1.06 1.25 1.41 1.49 1.53 1.57 1.57 1.60 1.63 1.70 1.81 1.85 1.88 1.99 2.08 2.17 2.28 2.36 2.27 2.17 2.07 2.04 1.98 1.85 1.66 1.48 1.41 1.49 1.60 1.68 1.71 1.55 1.44 1.25 1.13 1.05 0.96 0.90 0.94
0.74 0.77 0.86 0.88 0.92 1.01 1.12 1.20 1.28 1.40 1.45 1.49 1.54 1.57 1.59 1.68 1.76 1.80 1.87 1.89 1.98 2.00 1.99 1.95 1.92 1.89 1.83 1.66 1.57 1.44 1.33 1.40 1.52 1.58 1.60 1.48 1.43 1.35 1.25 1.17 1.11 1.10 1.11
0.78 0.81 0.84 0.83 0.86 0.91 1.06 1.16 1.25 1.38 1.49 1.56 1.57 1.50 1.46 1.51 1.55 1.58 1.56 1.56 1.50 1.50 1.47 1.46 1.46 1.44 1.38 1.28 1.16 1.14 1.12 1.16 1.30 1.35 1.50 1.56 1.52 1.48 1.40 1.29 1.18 1.14 1.11